GW3985 Weather Reports


time (UTC)temp
C
wind
direction
speed
KPH
gust
KPH
rain 1hr
cm
rain 24hr
cm
rain mn
cm
humidity
%
barometer
mb
20260904195017 32 0.0 0.0 0.00 0.00 0.00 24 1022.4
20260904194015 32 114 1.6 4.8 0.00 0.00 0.00 23 1022.4
20260904193055 32 332 1.6 8.0 0.00 0.00 0.00 23 1022.4
20260904192036 33 77 1.6 4.8 0.00 0.00 0.00 22 1022.6
20260904191016 32 46 0.0 3.2 0.00 0.00 0.00 24 1022.7
20260904190016 32 359 0.0 4.8 0.00 0.00 0.00 24 1022.8
20260904185016 31 271 0.0 3.2 0.00 0.00 0.00 24 1022.9
20260904184017 31 205 0.0 3.2 0.00 0.00 0.00 25 1023.0
20260904183015 30 239 0.0 1.6 0.00 0.00 0.00 25 1023.1
20260904182035 30 20 0.0 3.2 0.00 0.00 0.00 25 1023.2
20260904181035 30 201 0.0 3.2 0.00 0.00 0.00 25 1023.4
20260904180016 29 0.0 0.0 0.00 0.00 0.00 26 1023.5
20260904175016 28 143 0.0 1.6 0.00 0.00 0.00 25 1023.6
20260904174016 28 118 1.6 6.4 0.00 0.00 0.00 25 1023.6
20260904173017 28 290 0.0 1.6 0.00 0.00 0.00 27 1023.6
20260904172035 27 125 0.0 1.6 0.00 0.00 0.00 27 1023.6
20260904171035 27 278 0.0 3.2 0.00 0.00 0.00 28 1023.6
20260904170035 27 29 0.0 3.2 0.00 0.00 0.00 28 1023.6
20260904165016 27 193 0.0 1.6 0.00 0.00 0.00 27 1023.7
20260904164017 26 194 0.0 3.2 0.00 0.00 0.00 27 1023.7
20260904163017 26 218 0.0 3.2 0.00 0.00 0.00 29 1023.6
20260904162017 26 263 0.0 1.6 0.00 0.00 0.00 30 1023.6
20260904161035 25 316 0.0 1.6 0.00 0.00 0.00 33 1023.7
20260904160015 25 142 0.0 3.2 0.00 0.00 0.00 33 1023.7
20260904155016 25 158 0.0 3.2 0.00 0.00 0.00 33 1023.6
20260904154016 24 191 0.0 3.2 0.00 0.00 0.00 33 1023.6
20260904153016 23 143 1.6 3.2 0.00 0.00 0.00 34 1023.7
20260904152017 23 136 0.0 1.6 0.00 0.00 0.00 36 1023.6
20260904151014 22 142 1.6 3.2 0.00 0.00 0.00 37 1023.6
20260904150015 22 147 0.0 1.6 0.00 0.00 0.00 38 1023.6
20260904145015 21 0.0 0.0 0.00 0.00 0.00 40 1023.5
20260904144036 21 152 0.0 1.6 0.00 0.00 0.00 41 1023.5
20260904143056 20 150 0.0 1.6 0.00 0.00 0.00 46 1023.6
20260904142017 20 133 0.0 1.6 0.00 0.00 0.00 49 1023.4
20260904141017 18 133 0.0 1.6 0.00 0.00 0.00 50 1023.3
20260904140015 17 133 0.0 1.6 0.00 0.00 0.00 51 1023.3
20260904135015 17 0.0 0.0 0.00 0.00 0.00 56 1023.2
20260904134016 17 0.0 0.0 0.00 0.00 0.00 55 1023.2
20260904133017 17 133 0.0 1.6 0.00 0.00 0.00 52 1022.9
20260904132036 16 133 0.0 1.6 0.00 0.00 0.00 52 1022.7
20260904131037 16 133 0.0 3.2 0.00 0.00 0.00 53 1022.6
20260904130037 16 133 0.0 3.2 0.00 0.00 0.00 53 1022.5
20260904125015 15 0.0 0.0 0.00 0.00 0.00 53 1022.4
20260904124015 16 0.0 0.0 0.00 0.00 0.00 53 1022.3
20260904123016 15 131 1.6 4.8 0.00 0.00 0.00 53 1022.3
20260904122116 15 135 0.0 1.6 0.00 0.00 0.00 55 1022.3
20260904121016 16 0.0 0.0 0.00 0.00 0.00 54 1022.1
20260904120017 16 135 0.0 1.6 0.00 0.00 0.00 52 1022.0
20260904115017 16 0.0 0.0 0.00 0.00 0.00 53 1021.8
20260904114035 16 135 0.0 1.6 0.00 0.00 0.00 53 1021.9
20260904113015 16 135 0.0 1.6 0.00 0.00 0.00 55 1021.8
20260904112036 16 135 0.0 1.6 0.00 0.00 0.00 56 1021.9
20260904111016 15 142 0.0 1.6 0.00 0.00 0.00 60 1021.9
20260904110036 15 0.0 0.0 0.00 0.00 0.00 63 1021.9
20260904105017 15 0.0 0.0 0.00 0.00 0.00 62 1021.8
20260904104017 16 0.0 0.0 0.00 0.00 0.00 60 1021.5
20260904103017 16 0.0 0.0 0.00 0.00 0.00 59 1021.3
20260904102015 16 144 0.0 3.2 0.00 0.00 0.00 58 1021.1
20260904101016 17 146 0.0 1.6 0.00 0.00 0.00 57 1021.0
20260904100016 17 146 0.0 1.6 0.00 0.00 0.00 56 1021.0
20260904095017 18 0.0 0.0 0.00 0.00 0.00 55 1020.9
20260904094017 18 137 1.6 3.2 0.00 0.00 0.00 55 1020.7
20260904093015 18 143 1.6 3.2 0.00 0.00 0.00 55 1020.7
20260904092015 18 148 0.0 1.6 0.00 0.00 0.00 55 1020.6
20260904091015 18 140 1.6 4.8 0.00 0.00 0.00 55 1020.5
20260904090016 18 140 0.0 3.2 0.00 0.00 0.00 55 1020.5
20260904085016 18 139 1.6 3.2 0.00 0.00 0.00 54 1020.6
20260904084017 18 141 0.0 1.6 0.00 0.00 0.00 53 1020.5
20260904083017 19 140 0.0 4.8 0.00 0.00 0.00 53 1020.5
20260904082015 20 0.0 0.0 0.00 0.00 0.00 52 1020.6
20260904081015 20 146 1.6 8.0 0.00 0.00 0.00 50 1020.3
20260904080015 20 144 1.6 6.4 0.00 0.00 0.00 50 1020.3
20260904075018 20 145 3.2 6.4 0.00 0.00 0.00 49 1020.3
20260904074016 20 148 1.6 8.0 0.00 0.00 0.00 49 1020.4
20260904073158 20 143 1.6 6.4 0.00 0.00 0.00 49 1020.4
20260904072017 20 142 0.0 1.6 0.00 0.00 0.00 49 1020.8
20260904071035 20 0.0 0.0 0.00 0.00 0.00 48 1020.9
20260904070015 20 142 0.0 3.2 0.00 0.00 0.00 48 1020.8
20260904065018 20 140 0.0 1.6 0.00 0.00 0.00 48 1020.8
20260904064016 21 0.0 0.0 0.00 0.00 0.00 47 1020.8
20260904063016 21 139 0.0 1.6 0.00 0.00 0.00 47 1020.9
20260904062017 21 0.0 0.0 0.00 0.00 0.00 46 1020.9
20260904061017 21 139 0.0 1.6 0.00 0.00 0.00 45 1020.9
20260904060015 22 144 0.0 3.2 0.00 0.00 0.00 44 1020.9
20260904055015 22 143 0.0 3.2 0.00 0.00 0.00 43 1020.9
20260904054016 22 275 0.0 1.6 0.00 0.00 0.00 43 1021.0
20260904053016 22 249 0.0 1.6 0.00 0.00 0.00 41 1021.0
20260904052016 22 0.0 0.0 0.00 0.00 0.00 40 1021.0
20260904051017 23 0.0 0.0 0.00 0.00 0.00 39 1021.1
20260904050015 23 258 0.0 1.6 0.00 0.00 0.00 38 1021.2
20260904045015 23 240 0.0 1.6 0.00 0.00 0.00 37 1021.3
20260904044015 23 146 0.0 4.8 0.00 0.00 0.00 35 1021.3
20260904043016 23 263 1.6 11.3 0.00 0.00 0.00 34 1021.4
20260904042016 23 170 0.0 3.2 0.00 0.00 0.00 34 1021.4
20260904041017 23 129 0.0 1.6 0.00 0.00 0.00 33 1021.4
20260904040017 23 273 0.0 3.2 0.00 0.00 0.00 32 1021.2
20260904035015 23 0.0 0.0 0.00 0.00 0.00 32 1021.2
20260904034015 24 129 0.0 1.6 0.00 0.00 0.00 31 1021.0
20260904033015 24 141 1.6 9.7 0.00 0.00 0.00 31 1020.7
20260904032016 24 142 1.6 3.2 0.00 0.00 0.00 31 1020.5
20260904031019 24 146 0.0 1.6 0.00 0.00 0.00 30 1020.5
20260904030017 24 162 1.6 8.0 0.00 0.00 0.00 31 1020.4
20260904025017 24 272 0.0 1.6 0.00 0.00 0.00 32 1020.4
20260904024035 25 0.0 0.0 0.00 0.00 0.00 31 1020.2
20260904023015 25 144 0.0 3.2 0.00 0.00 0.00 29 1019.8
20260904022016 26 139 1.6 6.4 0.00 0.00 0.00 28 1019.6
20260904021036 26 136 1.6 6.4 0.00 0.00 0.00 28 1019.5
20260904020016 26 130 1.6 4.8 0.00 0.00 0.00 27 1019.4
20260904015017 27 134 1.6 4.8 0.00 0.00 0.00 26 1019.3
20260904014017 27 136 3.2 8.0 0.00 0.00 0.00 26 1019.1
20260904013015 27 140 3.2 11.3 0.00 0.00 0.00 25 1019.0
20260904012015 28 138 3.2 11.3 0.00 0.00 0.00 25 1018.9
20260904011016 28 139 3.2 19.3 0.00 0.00 0.00 25 1018.9
20260904010016 29 143 3.2 6.4 0.00 0.00 0.00 25 1018.9
20260904005017 29 141 1.6 6.4 0.00 0.00 0.00 24 1018.9
20260904004017 30 142 1.6 11.3 0.00 0.00 0.00 23 1018.9
20260904003015 30 145 3.2 9.7 0.00 0.00 0.00 22 1018.9
20260904002015 31 138 3.2 11.3 0.00 0.00 0.00 21 1019.0
20260904001015 31 163 3.2 12.9 0.00 0.00 0.00 19 1018.8
20260904000016 32 130 3.2 9.7 0.00 0.00 0.00 17 1018.9
20260903235016 33 155 1.6 8.0 0.00 0.00 0.00 16 1018.9
20260903234016 32 246 0.0 3.2 0.00 0.00 0.00 17 1019.0
20260903233017 33 152 1.6 4.8 0.00 0.00 0.00 16 1019.1
20260903232035 33 139 1.6 6.4 0.00 0.00 0.00 17 1019.2
20260903231015 33 241 0.0 3.2 0.00 0.00 0.00 18 1019.2
20260903230016 33 139 1.6 8.0 0.00 0.00 0.00 18 1019.4
20260903225019 32 136 3.2 9.7 0.00 0.00 0.00 19 1019.5
20260903224016 33 143 1.6 4.8 0.00 0.00 0.00 19 1019.6
20260903223016 33 243 0.0 6.4 0.00 0.00 0.00 21 1019.6
20260903222037 32 126 1.6 4.8 0.00 0.00 0.00 22 1019.7
20260903221015 32 106 1.6 4.8 0.00 0.00 0.00 22 1019.8
20260903220015 32 141 4.8 9.7 0.00 0.00 0.00 21 1019.9
20260903215016 32 144 1.6 9.7 0.00 0.00 0.00 20 1019.9
20260903214016 32 143 1.6 8.0 0.00 0.00 0.00 19 1020.1
20260903213016 33 144 4.8 11.3 0.00 0.00 0.00 20 1020.2
20260903212017 32 154 0.0 1.6 0.00 0.00 0.00 22 1020.2
20260903211017 32 137 3.2 14.5 0.00 0.00 0.00 22 1020.4
20260903210015 33 127 1.6 3.2 0.00 0.00 0.00 20 1020.4
20260903205015 32 267 3.2 9.7 0.00 0.00 0.00 20 1020.5
20260903204015 32 238 1.6 6.4 0.00 0.00 0.00 20 1020.7
20260903203016 32 252 3.2 11.3 0.00 0.00 0.00 20 1020.9
20260903202019 32 222 3.2 9.7 0.00 0.00 0.00 21 1020.9
20260903201037 32 131 1.6 3.2 0.00 0.00 0.00 21 1021.0
20260903200017 31 130 1.6 9.7 0.00 0.00 0.00 22 1021.2